When you browse on this site, cookies collect data to enhance your experience and personalize the content and advertising you see.
Visit our Privacy Policy to learn more. By continuing to use the site, you agree to this use of cookies and data.
  • In Hungary
  • List of Countries
  • For 7 days
  • Water Temperature
  • Weather Map
  • News
  • Weather Widgets
  • user-avatar
    Login

    Hourly Weather Dvornyashi

    Today, 17 September, Tuesday

    Time Temperature Precipitation Wind Pressure Humidity
    00:00 +7°C° 0 mm 4 mps 743 mmHg 92%
    01:00 +7°C° 0 mm 4 mps 743 mmHg 93%
    02:00 +7°C° 0 mm 4 mps 743 mmHg 93%
    03:00 +7°C° 0 mm 4 mps 743 mmHg 93%
    04:00 +7°C° 0 mm 4 mps 743 mmHg 93%
    05:00 +8°C° 0 mm 3 mps 743 mmHg 93%
    06:00 +8°C° 0 mm 3 mps 743 mmHg 91%
    07:00 +9°C° 0 mm 3 mps 743 mmHg 89%
    08:00 +9°C° 0 mm 3 mps 743 mmHg 86%
    09:00 +10°C° 0.1 mm 4 mps 743 mmHg 82%
    10:00 +11°C° 0.1 mm 4 mps 743 mmHg 77%
    11:00 +12°C° 0.1 mm 4 mps 744 mmHg 73%
    12:00 +12°C° 0.2 mm 4 mps 743 mmHg 71%
    13:00 +13°C° 0.2 mm 4 mps 743 mmHg 69%
    14:00 +13°C° 0 mm 4 mps 743 mmHg 68%
    15:00 +12°C° 0.3 mm 4 mps 743 mmHg 74%
    16:00 +11°C° 0.3 mm 3 mps 743 mmHg 79%
    17:00 +11°C° 0.3 mm 3 mps 742 mmHg 85%
    18:00 +9°C° 0.1 mm 2 mps 743 mmHg 88%
    19:00 +8°C° 0.1 mm 2 mps 743 mmHg 91%
    20:00 +8°C° 0.1 mm 1 mps 743 mmHg 94%
    21:00 +7°C° 0 mm 1 mps 742 mmHg 95%
    22:00 +7°C° 0 mm 1 mps 742 mmHg 95%
    23:00 +6°C° 0 mm 1 mps 742 mmHg 95%

    Tomorrow, 18 September, Wednesday

    Time Temperature Precipitation Wind Pressure Humidity
    00:00 +6°C° 0 mm 1 mps 742 mmHg 95%
    01:00 +6°C° 0 mm 1 mps 742 mmHg 96%
    02:00 +6°C° 0 mm 1 mps 742 mmHg 96%
    03:00 +6°C° 0 mm 1 mps 742 mmHg 96%
    04:00 +6°C° 0 mm 1 mps 742 mmHg 96%
    05:00 +6°C° 0 mm 1 mps 742 mmHg 96%
    06:00 +5°C° 0 mm 2 mps 742 mmHg 94%
    07:00 +6°C° 0 mm 2 mps 743 mmHg 92%
    08:00 +7°C° 0 mm 2 mps 743 mmHg 89%
    09:00 +8°C° 0 mm 2 mps 743 mmHg 84%
    10:00 +9°C° 0 mm 2 mps 744 mmHg 80%
    11:00 +12°C° 0 mm 2 mps 744 mmHg 75%
    12:00 +11°C° 0.2 mm 3 mps 745 mmHg 73%
    13:00 +12°C° 0.2 mm 3 mps 745 mmHg 72%
    14:00 +12°C° 0.2 mm 3 mps 746 mmHg 71%
    15:00 +11°C° 0.4 mm 3 mps 746 mmHg 76%
    16:00 +11°C° 0.4 mm 3 mps 747 mmHg 81%
    17:00 +10°C° 0.4 mm 3 mps 747 mmHg 86%
    18:00 +9°C° 0.1 mm 3 mps 748 mmHg 88%
    19:00 +8°C° 0.1 mm 3 mps 748 mmHg 91%
    20:00 +7°C° 0.1 mm 3 mps 749 mmHg 94%
    21:00 +5°C° 0 mm 3 mps 749 mmHg 95%
    22:00 +5°C° 0 mm 2 mps 750 mmHg 96%
    23:00 +5°C° 0 mm 2 mps 751 mmHg 96%

    Day after tomorrow, 19 September, Thursday

    Time Temperature Precipitation Wind Pressure Humidity
    00:00 +4°C° 0 mm 2 mps 751 mmHg 96%
    01:00 +4°C° 0 mm 2 mps 752 mmHg 96%
    02:00 +3°C° 0 mm 2 mps 752 mmHg 95%
    03:00 +3°C° 0 mm 2 mps 752 mmHg 95%
    04:00 +4°C° 0 mm 1 mps 753 mmHg 95%
    05:00 +4°C° 0 mm 1 mps 753 mmHg 95%
    06:00 +5°C° 0 mm 1 mps 753 mmHg 93%
    07:00 +6°C° 0 mm 1 mps 754 mmHg 90%
    08:00 +7°C° 0 mm 1 mps 754 mmHg 88%
    09:00 +8°C° 0 mm 1 mps 754 mmHg 84%
    10:00 +9°C° 0 mm 1 mps 754 mmHg 81%
    11:00 +10°C° 0 mm 1 mps 754 mmHg 77%
    12:00 +9°C° 0.1 mm 1 mps 754 mmHg 78%
    13:00 +9°C° 0.1 mm 1 mps 754 mmHg 79%
    14:00 +9°C° 0.1 mm 1 mps 754 mmHg 81%
    15:00 +9°C° 0.1 mm 1 mps 754 mmHg 83%
    16:00 +8°C° 0.1 mm 0 mps 754 mmHg 85%
    17:00 +8°C° 0.1 mm 0 mps 754 mmHg 87%
    18:00 +7°C° 0.1 mm 0 mps 754 mmHg 89%
    19:00 +7°C° 0.1 mm 0 mps 754 mmHg 91%
    20:00 +6°C° 0.1 mm 0 mps 754 mmHg 93%
    21:00 +7°C° 0.2 mm 1 mps 754 mmHg 93%
    22:00 +7°C° 0.2 mm 1 mps 754 mmHg 93%
    23:00 +7°C° 0.2 mm 1 mps 754 mmHg 92%

    20 September, Friday

    Time Temperature Precipitation Wind Pressure Humidity
    00:00 +7°C° 0.4 mm 1 mps 754 mmHg 92%
    01:00 +7°C° 0.4 mm 1 mps 755 mmHg 93%
    02:00 +6°C° 0.4 mm 1 mps 755 mmHg 93%
    03:00 +5°C° 0.1 mm 2 mps 755 mmHg 93%
    04:00 +5°C° 0.1 mm 2 mps 755 mmHg 92%
    05:00 +4°C° 0.1 mm 2 mps 755 mmHg 92%
    06:00 +5°C° 0 mm 2 mps 756 mmHg 90%
    07:00 +5°C° 0 mm 2 mps 756 mmHg 88%
    08:00 +5°C° 0 mm 2 mps 756 mmHg 87%
    09:00 +7°C° 0 mm 3 mps 757 mmHg 79%
    10:00 +8°C° 0 mm 3 mps 757 mmHg 72%
    11:00 +9°C° 0 mm 3 mps 758 mmHg 65%
    12:00 +9°C° 0.1 mm 3 mps 758 mmHg 64%
    13:00 +10°C° 0.1 mm 3 mps 758 mmHg 63%
    14:00 +10°C° 0.1 mm 3 mps 758 mmHg 61%
    15:00 +9°C° 0.2 mm 3 mps 759 mmHg 67%
    16:00 +9°C° 0.2 mm 3 mps 759 mmHg 72%
    17:00 +8°C° 0.2 mm 3 mps 759 mmHg 78%
    18:00 +5°C° 0 mm 3 mps 760 mmHg 81%
    19:00 +4°C° 0 mm 3 mps 760 mmHg 85%
    20:00 +4°C° 0 mm 2 mps 761 mmHg 88%
    21:00 +3°C° 0 mm 2 mps 761 mmHg 88%
    22:00 +2°C° 0 mm 2 mps 761 mmHg 87%
    23:00 +2°C° 0 mm 2 mps 761 mmHg 86%

    21 September, Saturday

    Time Temperature Precipitation Wind Pressure Humidity
    00:00 +1°C° 0 mm 2 mps 762 mmHg 86%
    01:00 +1°C° 0 mm 2 mps 762 mmHg 86%
    02:00 +2°C° 0 mm 1 mps 762 mmHg 86%
    03:00 +1°C° 0 mm 2 mps 762 mmHg 85%
    04:00 +1°C° 0 mm 2 mps 762 mmHg 85%
    05:00 +2°C° 0 mm 2 mps 761 mmHg 84%
    06:00 +2°C° 0 mm 3 mps 761 mmHg 84%
    07:00 +3°C° 0 mm 3 mps 761 mmHg 83%
    08:00 +4°C° 0 mm 3 mps 760 mmHg 83%
    09:00 +4°C° 0.2 mm 4 mps 760 mmHg 84%
    10:00 +3°C° 0.2 mm 5 mps 759 mmHg 86%
    11:00 +4°C° 0.2 mm 6 mps 759 mmHg 88%
    12:00 +4°C° 1 mm 6 mps 758 mmHg 90%
    13:00 +4°C° 1 mm 6 mps 757 mmHg 93%
    14:00 +4°C° 1 mm 6 mps 756 mmHg 95%
    15:00 +7°C° 1.1 mm 6 mps 755 mmHg 95%
    16:00 +8°C° 1.1 mm 5 mps 754 mmHg 95%
    17:00 +9°C° 1.1 mm 5 mps 754 mmHg 94%
    18:00 +9°C° 0 mm 5 mps 753 mmHg 93%
    19:00 +10°C° 0 mm 5 mps 753 mmHg 92%
    20:00 +10°C° 0 mm 5 mps 753 mmHg 91%
    21:00 +10°C° 0 mm 5 mps 753 mmHg 90%
    22:00 +10°C° 0 mm 6 mps 753 mmHg 90%
    23:00 +10°C° 0 mm 6 mps 753 mmHg 89%

    22 September, Sunday

    Time Temperature Precipitation Wind Pressure Humidity
    00:00 +10°C° 0 mm 6 mps 753 mmHg 89%
    01:00 +10°C° 0 mm 6 mps 753 mmHg 89%
    02:00 +10°C° 0 mm 6 mps 753 mmHg 90%
    03:00 +10°C° 0 mm 5 mps 753 mmHg 89%
    04:00 +10°C° 0 mm 5 mps 754 mmHg 89%
    05:00 +10°C° 0 mm 5 mps 754 mmHg 89%
    06:00 +9°C° 0.1 mm 5 mps 754 mmHg 84%
    07:00 +8°C° 0.1 mm 4 mps 755 mmHg 78%
    08:00 +8°C° 0.1 mm 4 mps 755 mmHg 73%
    09:00 +10°C° 0 mm 4 mps 756 mmHg 66%
    10:00 +10°C° 0 mm 4 mps 756 mmHg 58%
    11:00 +10°C° 0 mm 5 mps 756 mmHg 50%
    12:00 +10°C° 0 mm 5 mps 756 mmHg 49%
    13:00 +10°C° 0 mm 5 mps 756 mmHg 47%
    14:00 +12°C° 0 mm 4 mps 756 mmHg 46%
    15:00 +11°C° 0 mm 4 mps 756 mmHg 51%
    16:00 +10°C° 0 mm 3 mps 756 mmHg 55%
    17:00 +9°C° 0 mm 2 mps 756 mmHg 60%
    18:00 +8°C° 0 mm 2 mps 757 mmHg 64%
    19:00 +8°C° 0 mm 1 mps 757 mmHg 68%
    20:00 +6°C° 0 mm 1 mps 757 mmHg 72%
    21:00 +6°C° 0 mm 1 mps 757 mmHg 74%
    22:00 +5°C° 0 mm 1 mps 757 mmHg 76%
    23:00 +4°C° 0 mm 0 mps 757 mmHg 78%
    Show more